Simultaneous Nadir Overpasses (SNOs) Predictions

Prediction of SNOs between AQUA and NPP Satellite Orbit:

Table of predicted SNOs for the next 14.0 days since TLE Epoch: 11/1/2014
Index Date (AQUA) Time (AQUA) Lat,Lon (AQUA) SZA (AQUA ) Date (NPP) Time (NPP) Lat,Lon (NPP) SZA (NPP ) Distance(km) Time Diff (sec)
1 11/03/2014 00:44:46 -46.04,-158.73 43.48 11/03/2014 00:44:01 -46.02,-158.54 43.47 14.37 45
2 11/03/2014 01:32:27 52.11, 11.42 131.97 11/03/2014 01:32:57 52.11, 11.43 131.90 0.60 30
3 11/05/2014 17:01:14 -46.03, -42.84 42.81 11/05/2014 17:00:56 -46.03, -42.77 42.81 5.45 18
4 11/05/2014 17:47:38 56.63, 129.59 129.10 11/05/2014 17:48:33 56.63, 129.61 128.99 1.47 55
5 11/08/2014 08:28:11 46.05, -94.57 137.81 11/08/2014 08:27:03 46.03, -94.31 137.84 20.53 68
6 11/08/2014 09:17:05 -48.17, 73.87 43.70 11/08/2014 09:17:14 -48.16, 73.86 43.72 0.68 9
7 11/08/2014 09:58:04 76.63, -88.43 111.81 11/08/2014 09:59:17 76.44, -87.27 111.55 36.97 73
8 11/11/2014 00:44:38 46.00, 21.30 138.48 11/11/2014 00:43:59 45.96, 21.43 138.52 10.99 39
9 11/11/2014 01:32:02 -53.37,-167.97 46.94 11/11/2014 01:32:37 -53.37,-167.97 47.01 0.27 35
10 11/13/2014 17:01:02 46.03, 137.21 139.07 11/13/2014 17:00:52 46.00, 137.22 139.10 2.82 10




NCC Satellite Simultaneous Nadir Overpasses (SNOs) Prediction Service
